• In Austria
  • List of Countries
  • For 7 days
  • Water Temperature
  • Satellite Maps
  • Weather Map
  • News
  • Weather Widgets
  • user-avatar
    Login

    Hourly Weather Kerimäki

    Today, 22 January, Monday

    Time Temperature Precipitation Wind Pressure Humidity
    00:00 -13°C° 0 mm 1 mps 752 mmHg 95%
    01:00 -14°C° 0 mm 1 mps 752 mmHg 95%
    02:00 -14°C° 0 mm 1 mps 752 mmHg 95%
    03:00 -15°C° 0 mm 1 mps 752 mmHg 95%
    04:00 -15°C° 0 mm 1 mps 752 mmHg 95%
    05:00 -15°C° 0 mm 1 mps 751 mmHg 95%
    06:00 -16°C° 0 mm 1 mps 751 mmHg 95%
    07:00 -16°C° 0 mm 1 mps 751 mmHg 95%
    08:00 -17°C° 0 mm 1 mps 751 mmHg 96%
    09:00 -17°C° 0 mm 1 mps 751 mmHg 95%
    10:00 -16°C° 0 mm 1 mps 751 mmHg 94%
    11:00 -16°C° 0 mm 1 mps 751 mmHg 93%
    12:00 -16°C° 0 mm 1 mps 751 mmHg 92%
    13:00 -16°C° 0 mm 1 mps 751 mmHg 92%
    14:00 -17°C° 0 mm 1 mps 750 mmHg 91%
    15:00 -17°C° 0 mm 1 mps 750 mmHg 92%
    16:00 -20°C° 0 mm 2 mps 750 mmHg 93%
    17:00 -20°C° 0 mm 2 mps 751 mmHg 94%
    18:00 -20°C° 0 mm 2 mps 751 mmHg 94%
    19:00 -20°C° 0 mm 2 mps 751 mmHg 94%
    20:00 -21°C° 0 mm 2 mps 751 mmHg 94%
    21:00 -21°C° 0 mm 2 mps 751 mmHg 94%
    22:00 -20°C° 0 mm 2 mps 751 mmHg 94%
    23:00 -20°C° 0 mm 2 mps 752 mmHg 93%

    Tomorrow, 23 January, Tuesday

    Time Temperature Precipitation Wind Pressure Humidity
    00:00 -20°C° 0 mm 2 mps 752 mmHg 93%
    01:00 -20°C° 0 mm 2 mps 752 mmHg 93%
    02:00 -20°C° 0 mm 2 mps 753 mmHg 93%
    03:00 -20°C° 0 mm 2 mps 753 mmHg 93%
    04:00 -20°C° 0 mm 2 mps 753 mmHg 93%
    05:00 -20°C° 0 mm 2 mps 753 mmHg 93%
    06:00 -20°C° 0 mm 2 mps 754 mmHg 93%
    07:00 -20°C° 0 mm 2 mps 754 mmHg 93%
    08:00 -20°C° 0 mm 2 mps 754 mmHg 93%
    09:00 -20°C° 0 mm 2 mps 755 mmHg 93%
    10:00 -20°C° 0 mm 2 mps 755 mmHg 92%
    11:00 -20°C° 0 mm 2 mps 756 mmHg 91%
    12:00 -19°C° 0 mm 2 mps 756 mmHg 91%
    13:00 -19°C° 0 mm 2 mps 756 mmHg 90%
    14:00 -19°C° 0 mm 2 mps 756 mmHg 90%
    15:00 -19°C° 0 mm 2 mps 757 mmHg 92%
    16:00 -19°C° 0 mm 2 mps 757 mmHg 93%
    17:00 -19°C° 0 mm 2 mps 757 mmHg 95%
    18:00 -19°C° 0 mm 2 mps 757 mmHg 95%
    19:00 -18°C° 0 mm 2 mps 757 mmHg 94%
    20:00 -17°C° 0 mm 2 mps 757 mmHg 94%
    21:00 -17°C° 0 mm 2 mps 757 mmHg 94%
    22:00 -17°C° 0 mm 3 mps 757 mmHg 93%
    23:00 -16°C° 0 mm 3 mps 756 mmHg 92%

    Day after tomorrow, 24 January, Wednesday

    Time Temperature Precipitation Wind Pressure Humidity
    00:00 -15°C° 0.1 mm 3 mps 756 mmHg 93%
    01:00 -14°C° 0.1 mm 3 mps 756 mmHg 94%
    02:00 -14°C° 0.1 mm 4 mps 756 mmHg 94%
    03:00 -11°C° 0.2 mm 4 mps 755 mmHg 94%
    04:00 -9°C° 0.2 mm 4 mps 754 mmHg 93%
    05:00 -7°C° 0.2 mm 5 mps 753 mmHg 93%
    06:00 -7°C° 0.2 mm 5 mps 753 mmHg 91%
    07:00 -7°C° 0.2 mm 5 mps 752 mmHg 90%
    08:00 -6°C° 0.2 mm 6 mps 752 mmHg 89%
    09:00 -8°C° 0.1 mm 6 mps 751 mmHg 88%
    10:00 -8°C° 0.1 mm 6 mps 751 mmHg 87%
    11:00 -9°C° 0.1 mm 6 mps 750 mmHg 86%
    12:00 -9°C° 0.2 mm 6 mps 750 mmHg 86%
    13:00 -9°C° 0.2 mm 6 mps 749 mmHg 87%
    14:00 -9°C° 0.2 mm 6 mps 749 mmHg 87%
    15:00 -9°C° 0.3 mm 6 mps 748 mmHg 88%
    16:00 -9°C° 0.3 mm 6 mps 747 mmHg 88%
    17:00 -9°C° 0.3 mm 6 mps 747 mmHg 89%
    18:00 -8°C° 0.3 mm 6 mps 746 mmHg 89%
    19:00 -8°C° 0.3 mm 6 mps 746 mmHg 89%
    20:00 -6°C° 0.3 mm 6 mps 745 mmHg 90%
    21:00 -5°C° 0.2 mm 6 mps 745 mmHg 90%
    22:00 -4°C° 0.2 mm 5 mps 745 mmHg 91%
    23:00 -2°C° 0.2 mm 5 mps 745 mmHg 92%

    25 January, Thursday

    Time Temperature Precipitation Wind Pressure Humidity
    00:00 -1°C° 0.1 mm 5 mps 744 mmHg 92%
    01:00 -2°C° 0.1 mm 6 mps 744 mmHg 92%
    02:00 -1°C° 0.1 mm 6 mps 744 mmHg 92%
    03:00 -1°C° 0.6 mm 7 mps 743 mmHg 91%
    04:00 -1°C° 0.6 mm 8 mps 742 mmHg 90%
    05:00 0°C° 0.6 mm 9 mps 741 mmHg 90%
    06:00 0°C° 0.9 mm 9 mps 740 mmHg 90%
    07:00 0°C° 0.9 mm 9 mps 739 mmHg 90%
    08:00 0°C° 0.9 mm 9 mps 738 mmHg 90%
    09:00 0°C° 0.9 mm 9 mps 738 mmHg 90%
    10:00 +1°C° 0.9 mm 8 mps 738 mmHg 90%
    11:00 +1°C° 0.9 mm 8 mps 738 mmHg 90%
    12:00 0°C° 0.1 mm 7 mps 738 mmHg 90%
    13:00 0°C° 0.1 mm 7 mps 738 mmHg 89%
    14:00 +1°C° 0.1 mm 6 mps 739 mmHg 89%
    15:00 +1°C° 0 mm 6 mps 739 mmHg 88%
    16:00 +1°C° 0 mm 6 mps 739 mmHg 87%
    17:00 -1°C° 0 mm 6 mps 739 mmHg 86%
    18:00 -1°C° 0.1 mm 7 mps 739 mmHg 85%
    19:00 -1°C° 0.1 mm 7 mps 739 mmHg 85%
    20:00 -1°C° 0.1 mm 7 mps 739 mmHg 84%
    21:00 -1°C° 0.1 mm 7 mps 740 mmHg 84%
    22:00 -1°C° 0.1 mm 7 mps 740 mmHg 84%
    23:00 -1°C° 0.1 mm 7 mps 741 mmHg 83%

    26 January, Friday

    Time Temperature Precipitation Wind Pressure Humidity
    00:00 -1°C° 0 mm 7 mps 741 mmHg 83%
    01:00 -1°C° 0 mm 7 mps 742 mmHg 83%
    02:00 -1°C° 0 mm 6 mps 742 mmHg 83%
    03:00 -1°C° 0 mm 6 mps 743 mmHg 83%
    04:00 -1°C° 0 mm 6 mps 743 mmHg 84%
    05:00 -1°C° 0 mm 6 mps 744 mmHg 84%
    06:00 0°C° 0 mm 5 mps 744 mmHg 84%
    07:00 0°C° 0 mm 5 mps 745 mmHg 85%
    08:00 -1°C° 0 mm 5 mps 745 mmHg 85%
    09:00 -1°C° 0 mm 5 mps 746 mmHg 85%
    10:00 -1°C° 0 mm 5 mps 747 mmHg 85%
    11:00 -1°C° 0 mm 5 mps 747 mmHg 86%
    12:00 -1°C° 0 mm 5 mps 748 mmHg 86%
    13:00 -1°C° 0 mm 5 mps 748 mmHg 85%
    14:00 -1°C° 0 mm 5 mps 749 mmHg 85%
    15:00 -1°C° 0 mm 4 mps 749 mmHg 86%
    16:00 -1°C° 0 mm 4 mps 749 mmHg 87%
    17:00 0°C° 0 mm 3 mps 749 mmHg 88%
    18:00 0°C° 0 mm 3 mps 750 mmHg 90%
    19:00 0°C° 0 mm 3 mps 750 mmHg 92%
    20:00 0°C° 0 mm 3 mps 750 mmHg 93%
    21:00 0°C° 0 mm 3 mps 750 mmHg 94%
    22:00 0°C° 0 mm 3 mps 750 mmHg 94%
    23:00 0°C° 0 mm 3 mps 750 mmHg 95%

    27 January, Saturday

    Time Temperature Precipitation Wind Pressure Humidity
    00:00 0°C° 0.1 mm 3 mps 751 mmHg 95%
    01:00 -1°C° 0.1 mm 2 mps 751 mmHg 96%
    02:00 -1°C° 0.1 mm 2 mps 751 mmHg 96%
    03:00 -1°C° 0.2 mm 2 mps 751 mmHg 96%
    04:00 -1°C° 0.2 mm 2 mps 751 mmHg 96%
    05:00 -1°C° 0.2 mm 2 mps 751 mmHg 96%
    06:00 -1°C° 0.1 mm 2 mps 752 mmHg 96%
    07:00 -1°C° 0.1 mm 2 mps 752 mmHg 96%
    08:00 -1°C° 0.1 mm 2 mps 752 mmHg 97%
    09:00 -1°C° 0.1 mm 2 mps 753 mmHg 96%
    10:00 -1°C° 0.1 mm 2 mps 753 mmHg 96%
    11:00 -1°C° 0.1 mm 2 mps 754 mmHg 96%
    12:00 -1°C° 0 mm 2 mps 754 mmHg 96%
    13:00 +2°C° 0 mm 1 mps 755 mmHg 96%
    14:00 +2°C° 0 mm 1 mps 755 mmHg 96%
    15:00 +1°C° 0 mm 1 mps 755 mmHg 96%
    16:00 +1°C° 0 mm 1 mps 756 mmHg 96%
    17:00 +1°C° 0 mm 1 mps 756 mmHg 96%
    18:00 +1°C° 0 mm 1 mps 756 mmHg 95%
    19:00 +1°C° 0 mm 1 mps 756 mmHg 94%
    20:00 +1°C° 0 mm 1 mps 756 mmHg 94%
    21:00 +1°C° 0 mm 1 mps 756 mmHg 93%
    22:00 +1°C° 0 mm 1 mps 756 mmHg 93%
    23:00 0°C° 0 mm 1 mps 756 mmHg 92%
    Show more